Flag for Jordan Weather past 2 weeks in Amman, Jordan

Now
52 °F

Haze.


Feels Like: 49 °F
Forecast: 46 / 59 °F
Wind: 7 mph from West

Location: Amman Airport

Current Time: Jan 31, 2015 at 7:06:43 PM

Latest Report: Jan 31, 2015 at 6:00 PM


Visibility: 3 mi

Pressure: 30.15 "Hg

Humidity: 38%

Dew point: 27 °F

Location of AmmanLocation

Historic Weather in Amman — Graph

°F

Amman temperature yesterday

Maximum temperature yesterday: 52 °F (at 12:00 PM)
Minimum temperature yesterday: 43 °F (at 7:00 AM)
Average temperature yesterday: 48 °F

Past Weeks' High & Low Weather Summary

 TemperatureHumidityPressure
High66 °F (Jan 22, 1:00 PM)100% (Jan 17, 7:00 AM)30.33 "Hg (Jan 17, 7:00 AM)
Low37 °F (Jan 19, 6:00 AM)24% (Jan 22, 4:00 PM)29.86 "Hg (Jan 28, 8:00 AM)
Average50 °F62%30.12 "Hg
* Reported Jan 16 6:00 PM — Jan 31 6:00 PM, Amman, Weather by CustomWeather, © 2014

Note: Actual official high and low records may vary slightly from our data, if they occured in-between our weather recording intervals... More about our weather records

Advertising

Amman weather history for previous 24 hours

 ConditionsComfort  
Time TempWeatherWind HumidityBarometerVisibility
6:00 PM
Jan 31
52 °FHaze.7 mph38%30.15 "Hg3 mi
5:00 PM57 °FHaze.7 mph31%30.12 "Hg2 mi
4:00 PM59 °FHaze.9 mph29%30.12 "Hg3 mi
3:00 PM59 °FHaze.9 mph31%30.12 "Hg3 mi
2:00 PM59 °FClear.9 mph25%30.12 "Hg4 mi
1:00 PM57 °FClear.9 mph29%30.15 "Hg4 mi
12:00 PM55 °FClear.9 mph33%30.18 "Hg4 mi
11:00 AM52 °FHaze.12 mph38%30.21 "Hg3 mi
10:00 AM50 °FHaze.12 mph40%30.21 "Hg3 mi
9:00 AM46 °FHaze.No wind46%30.18 "Hg3 mi
8:00 AM41 °FHaze.No wind61%30.18 "Hg3 mi
7:00 AM39 °FHaze.6 mph65%30.21 "Hg3 mi
6:00 AM39 °FHaze.No wind65%30.15 "Hg3 mi
5:00 AM41 °FHaze.No wind66%30.12 "Hg3 mi
4:00 AM41 °FClear.No wind66%30.15 "Hg4 mi
3:00 AM43 °FClear.No wind57%30.15 "Hg4 mi
2:00 AM43 °FClear.No wind57%30.15 "Hg4 mi
1:00 AM43 °FClear.No wind57%30.18 "Hg4 mi
12:00 AM43 °FClear.No wind57%30.15 "Hg4 mi
11:00 PM
Jan 30
43 °FClear.No wind57%30.18 "Hg4 mi
9:00 PM45 °FClear.No wind53%30.12 "Hg4 mi
8:00 PM46 °FClear.5 mph50%30.09 "Hg4 mi
7:00 PM48 °FClear.5 mph40%30.09 "Hg4 mi
Weather by CustomWeather, © 2014

See weather overviewHow to use our weather pages